Weather History for KNKT - June, 2013

Change the Weather History Date:

Monday, June 3, 2013

  Actual Average Record
Temperature  
Mean Temperature 74 °F -  
Max Temperature 81 °F 80 °F 93 °F (1998)
Min Temperature 69 °F 62 °F 55 °F (2012)
Cooling Degree Days 9    
Growing Degree Days 24 (Base 50)    
Moisture  
Dew Point 70 °F    
Average Humidity 89    
Maximum Humidity 96    
Minimum Humidity 79    
Precipitation  
Precipitation 1.55 in - - ()
Sea Level Pressure  
Sea Level Pressure 29.94 in    
Wind  
Wind Speed 7 mph ()    
Max Wind Speed 15 mph    
Max Gust Speed 23 mph    
Visibility 7.6 miles    
Events Fog , Rain , Thunderstorm    
Averages and records for this station are not official NWS values.
T = Trace of Precipitation, MM = Missing Value Source: Averaged Metar Reports

Daily Weather History Graph

Daily Weather History Graph

Search for Another Location

Airport or City:

Trip Planner

Search our weather history database for the weather conditions in past years. The results will help you decide how hot, cold, wet, or windy it might be!

Date:

Astronomy

Jun. 03, 2013 Rise Set
Actual Time 5:54 AM EDT 8:17 PM EDT
Civil Twilight 5:25 AM EDT 8:46 PM EDT
Nautical Twilight 4:49 AM EDT 9:22 PM EDT
Astronomical Twilight 4:09 AM EDT 10:02 PM EDT
Moon 2:41 AM EDT (6/3) 3:54 PM EDT (6/3)
Length of Visible Light 15h 21m
Length of Day
14h 22m
Waning Crescent, 22% of the Moon is Illuminated
Jun 3
Waning Crescent
Jun 8
New
Jun 16
First Quarter
Jun 23
Full
Jun 30
Last Quarter

Hourly Weather History & Observations

Time (EDT) Temp. Dew Point Humidity Pressure Visibility Wind Dir Wind Speed Gust Speed Precip Events Conditions
12:54 AM 73.9 °F 69.1 °F 85% 29.99 in 10.0 mi South 6.9 mph - N/A   Clear
1:54 AM 73.9 °F 70.0 °F 87% 29.98 in 10.0 mi South 5.8 mph - N/A   Clear
2:54 AM 75.0 °F 70.0 °F 84% 29.97 in 10.0 mi SSW 8.1 mph 18.4 mph N/A   Partly Cloudy
3:54 AM 73.9 °F 70.0 °F 87% 29.95 in 10.0 mi South 6.9 mph - N/A   Clear
4:54 AM 75.0 °F 70.0 °F 84% 29.95 in 10.0 mi SSW 5.8 mph - N/A   Clear
5:54 AM 75.0 °F 70.0 °F 84% 29.95 in 10.0 mi South 5.8 mph - N/A   Clear
6:54 AM 75.0 °F 70.0 °F 84% 29.95 in 10.0 mi South 9.2 mph - N/A   Scattered Clouds
7:54 AM 75.9 °F 71.1 °F 85% 29.96 in 10.0 mi South 8.1 mph - N/A   Mostly Cloudy
8:54 AM 77.0 °F 71.1 °F 82% 29.95 in 10.0 mi SSW 10.4 mph 16.1 mph N/A   Overcast
9:25 AM 75.2 °F 71.6 °F 89% 29.96 in 10.0 mi South 8.1 mph - 0.00 in   Overcast
9:37 AM 75.2 °F 71.6 °F 89% 29.96 in 1.5 mi SW 13.8 mph 18.4 mph 0.10 in Rain Rain
9:54 AM 73.0 °F 69.1 °F 87% 29.95 in 1.0 mi South 6.9 mph 18.4 mph 0.37 in Rain , Thunderstorm Light Thunderstorms and Rain
10:06 AM 73.4 °F 71.6 °F 94% 29.95 in 10.0 mi SSW 5.8 mph - 0.00 in Thunderstorm Thunderstorm
10:27 AM 78.8 °F 73.4 °F 83% 29.95 in 10.0 mi South 9.2 mph - 0.00 in   Partly Cloudy
10:54 AM 78.1 °F 73.0 °F 84% 29.94 in 1.8 mi SSW 15.0 mph 21.9 mph 0.01 in Rain Light Rain
10:58 AM 78.8 °F 73.4 °F 83% 29.94 in 7.0 mi SSW 10.4 mph 21.9 mph 0.00 in   Mostly Cloudy
11:54 AM 79.0 °F 72.0 °F 79% 29.92 in 9.0 mi South 13.8 mph 20.7 mph 0.01 in Rain Light Rain
12:54 PM 77.0 °F 71.1 °F 82% 29.94 in 10.0 mi SSW 10.4 mph 17.3 mph 0.00 in Thunderstorm Thunderstorm
1:13 PM 75.2 °F 71.6 °F 89% 29.95 in 8.0 mi SSW 6.9 mph - 0.00 in Rain Light Rain
1:20 PM 75.2 °F 71.6 °F 89% 29.94 in 9.0 mi SSW 5.8 mph - 0.00 in Rain , Thunderstorm Light Thunderstorms and Rain
1:40 PM 75.2 °F 71.6 °F 89% 29.93 in 9.0 mi South 8.1 mph - 0.01 in Rain , Thunderstorm Light Thunderstorms and Rain
1:54 PM 75.0 °F 71.1 °F 87% 29.92 in 5.0 mi South 6.9 mph - 0.03 in Rain , Thunderstorm Thunderstorms and Rain
2:19 PM 73.4 °F 71.6 °F 94% 29.93 in 1.8 mi Variable 4.6 mph - 0.06 in Rain , Thunderstorm Heavy Thunderstorms and Rain
2:54 PM 70.0 °F 68.0 °F 93% 29.93 in 1.0 mi NNW 13.8 mph 23.0 mph 0.67 in Rain , Thunderstorm Heavy Thunderstorms and Rain
3:01 PM 69.8 °F 68.0 °F 94% 29.93 in 0.5 mi NW 8.1 mph 20.7 mph 0.11 in Fog , Rain , Thunderstorm Heavy Thunderstorms and Rain
3:04 PM 71.6 °F 68.0 °F 88% 29.93 in 1.0 mi NNW 10.4 mph - 0.11 in Rain , Thunderstorm Thunderstorms and Rain
3:11 PM 71.6 °F 69.8 °F 94% 29.93 in 3.0 mi North 8.1 mph - 0.13 in Rain , Thunderstorm Heavy Thunderstorms and Rain
3:54 PM 71.1 °F 69.1 °F 93% 29.91 in 4.0 mi SW 3.5 mph - 0.28 in Rain , Thunderstorm Thunderstorms and Rain
4:54 PM 70.0 °F 68.0 °F 93% 29.91 in 5.0 mi SSW 6.9 mph - 0.13 in Rain Rain
5:54 PM 69.1 °F 68.0 °F 96% 29.88 in 10.0 mi South 6.9 mph - 0.04 in   Overcast
6:54 PM 70.0 °F 68.0 °F 93% 29.89 in 10.0 mi South 3.5 mph - 0.01 in   Overcast
7:35 PM 69.8 °F 68.0 °F 94% 29.89 in 10.0 mi Variable 3.5 mph - N/A   Mostly Cloudy
7:54 PM 71.1 °F 69.1 °F 93% 29.89 in 10.0 mi South 3.5 mph - N/A   Mostly Cloudy
8:02 PM 71.6 °F 69.8 °F 94% 29.90 in 10.0 mi SSW 4.6 mph - N/A   Mostly Cloudy
8:54 PM 70.0 °F 68.0 °F 93% 29.91 in 10.0 mi Calm Calm - N/A   Mostly Cloudy
9:54 PM 69.1 °F 68.0 °F 96% 29.94 in 10.0 mi South 3.5 mph - N/A   Mostly Cloudy
10:04 PM 69.8 °F 68.0 °F 94% 29.94 in 10.0 mi South 5.8 mph - N/A   Mostly Cloudy
10:54 PM 71.1 °F 69.1 °F 93% 29.93 in 10.0 mi SSE 4.6 mph - N/A   Mostly Cloudy
11:54 PM 71.1 °F 69.1 °F 93% 29.96 in 10.0 mi Calm Calm - N/A   Mostly Cloudy